This is the latest recevied weather packets stored in our database for station/object KK6LVQ-13. If no packets are shown the sender has not sent any weather packets the latest 10 day(s).
| Time | Temp. | Humidity | Pressure | Rain* | Wind** | Luminosity | Snow |
|---|---|---|---|---|---|---|---|
| 1778123479 | 12.78° C | 94% | 1023.8 hPa | 0 mm | - | 1 W/m² | - |
| 1778123176 | 12.78° C | 93% | 1023.7 hPa | 0 mm | - | 2 W/m² | - |
| 1778122874 | 12.78° C | 93% | 1023.7 hPa | 0 mm | - | 3 W/m² | - |
| 1778122570 | 12.78° C | 93% | 1023.5 hPa | 0 mm | - | 6 W/m² | - |
| 1778122267 | 12.78° C | 92% | 1023.6 hPa | 0 mm | - | 8 W/m² | - |
| 1778121965 | 12.78° C | 92% | 1023.6 hPa | 0 mm | - | 11 W/m² | - |
| 1778121662 | 13.33° C | 91% | 1023.5 hPa | 0 mm | - | 14 W/m² | - |
| 1778121357 | 13.33° C | 91% | 1023.4 hPa | 0 mm | - | 16 W/m² | - |
| 1778121055 | 13.33° C | 90% | 1023.2 hPa | 0 mm | - | 19 W/m² | - |
| 1778120752 | 13.89° C | 90% | 1023.3 hPa | 0 mm | - | 22 W/m² | - |
| 1778120447 | 13.89° C | 88% | 1023.4 hPa | 0 mm | - | 25 W/m² | - |
| 1778120143 | 14.44° C | 87% | 1023.2 hPa | 0 mm | - | 33 W/m² | - |
| 1778119840 | 14.44° C | 86% | 1023.3 hPa | 0 mm | - | 42 W/m² | - |
| 1778119538 | 15° C | 86% | 1023.2 hPa | 0 mm | - | 50 W/m² | - |
| 1778119234 | 15° C | 85% | 1023.3 hPa | 0 mm | - | 58 W/m² | - |
| 1778118932 | 15° C | 84% | 1023.3 hPa | 0 mm | - | 67 W/m² | - |
| 1778118630 | 16.11° C | 82% | 1023.3 hPa | 0 mm | - | 77 W/m² | - |
| 1778118326 | 16.11° C | 82% | 1023.2 hPa | 0 mm | - | 90 W/m² | - |
| 1778118022 | 16.11° C | 81% | 1023.1 hPa | 0 mm | - | 101 W/m² | - |
| 1778117718 | 16.11° C | 81% | 1023.1 hPa | 0 mm | - | 113 W/m² | - |
| 1778117416 | 16.67° C | 80% | 1023.1 hPa | 0 mm | - | 126 W/m² | - |
| 1778117113 | 16.67° C | 79% | 1023.1 hPa | 0 mm | - | 139 W/m² | - |
| 1778116809 | 16.67° C | 79% | 1023.3 hPa | 0 mm | - | 153 W/m² | - |
| 1778116507 | 16.67° C | 79% | 1023.1 hPa | 0 mm | - | 166 W/m² | - |
| 1778116202 | 16.67° C | 79% | 1023 hPa | 0 mm | - | 180 W/m² | - |
* Rain latest hour (hover to see other rain measurements)
** Current wind speed in m/s (hover to see current wind gust speed)